Date String (YYYY-MM-DD hh:mm:ss) UTC,Instrument flags,Ambient pressure (hPa),Sample flow (lpm),Bypass flow (lpm),Sample temperature (°C),Ambient temperature (°C),ASC tube jacket temperature (°C),LED temperature (°C),Box temperature (°C),Sample RH (%),Span deviation,Mass concentration (μg/m³),Mass concentration (μg/m³),Mass concentration (μg/m³)
DateTimeUTC,F1_M11,P_M11,Q1_M11,Q2_M11,T1_M11,T2_M11,T3_M11,T4_M11,T5_M11,U1_M11,ZSPAN_M11,X2_M11,X0_M11,X1_M11
2023-05-05 10:00:00,,0825.8,5.00,0.00,29.4,27.7,00.0,37.8,30.8,18.7,0000.0,0003.79,0009.98,0002.26
2023-05-05 10:01:00,,0825.8,4.99,0.00,29.3,27.7,00.0,37.8,30.8,18.7,0000.0,0003.78,0009.89,0002.24
2023-05-05 10:02:00,,0825.8,5.01,0.00,29.3,27.6,00.0,37.8,30.8,18.8,0000.0,0003.84,0009.78,0002.23
2023-05-05 10:03:00,,0825.8,5.00,0.00,29.3,27.5,00.0,37.8,30.7,18.8,0000.0,0003.84,0009.54,0002.23
2023-05-05 10:04:00,,0825.8,5.00,0.00,29.2,27.5,00.0,37.8,30.8,18.8,0000.0,0003.82,0009.42,0002.25
2023-05-05 10:05:00,,0825.9,5.01,0.00,29.2,27.5,00.0,37.7,30.7,18.9,0000.0,0003.82,0009.41,0002.27
2023-05-05 10:06:00,,0825.9,5.00,0.00,29.2,27.5,00.0,37.7,30.7,18.7,0000.0,0003.83,0009.43,0002.27
2023-05-05 10:07:00,,0825.9,5.01,0.00,29.2,27.5,00.0,37.7,30.6,18.6,0000.0,0003.85,0009.29,0002.26
2023-05-05 10:08:00,,0825.9,4.98,0.00,29.2,27.5,00.0,37.7,30.6,18.6,0000.0,0003.82,0008.73,0002.23
2023-05-05 10:09:00,,0825.9,5.00,0.00,29.2,27.5,00.0,37.7,30.6,18.7,0000.0,0003.83,0009.03,0002.23
2023-05-05 10:10:00,,0825.9,5.01,0.00,29.2,27.5,00.0,37.7,30.7,18.7,0000.0,0003.84,0009.22,0002.23
2023-05-05 10:11:00,,0825.9,5.00,0.00,29.2,27.5,00.0,37.7,30.6,18.6,0000.0,0003.79,0009.27,0002.23
2023-05-05 10:12:00,,0825.9,5.00,0.00,29.2,27.5,00.0,37.7,30.6,18.6,0000.0,0003.78,0009.42,0002.24
2023-05-05 10:13:00,,0825.9,5.01,0.00,29.2,27.6,00.0,37.7,30.6,18.6,0000.0,0003.72,0009.28,0002.23
2023-05-05 10:14:00,,0825.9,5.00,0.00,29.2,27.6,00.0,37.7,30.6,18.7,0000.0,0003.71,0009.21,0002.24
2023-05-05 10:15:00,,0825.9,4.98,0.00,29.2,27.6,00.0,37.7,30.6,18.6,0000.0,0003.71,0009.14,0002.24
2023-05-05 10:16:00,,0825.8,5.01,0.00,29.2,27.6,00.0,37.7,30.6,18.7,0000.0,0003.72,0009.22,0002.20
2023-05-05 10:17:00,,0825.8,5.00,0.00,29.2,27.6,00.0,37.7,30.7,18.7,0000.0,0003.75,0009.66,0002.20
2023-05-05 10:18:00,,0825.8,5.01,0.00,29.2,27.6,00.0,37.7,30.7,18.7,0000.0,0003.77,0010.08,0002.21
2023-05-05 10:19:00,,0825.8,5.00,0.00,29.3,27.6,00.0,37.7,30.6,18.8,0000.0,0003.77,0010.12,0002.20
2023-05-05 10:20:00,,0825.8,5.00,0.00,29.2,27.6,00.0,37.7,30.7,18.7,0000.0,0003.77,0009.80,0002.19
2023-05-05 10:21:00,,0825.8,4.99,0.00,29.2,27.6,00.0,37.7,30.6,18.6,0000.0,0003.77,0009.63,0002.18
2023-05-05 10:22:00,,0825.8,5.01,0.00,29.3,27.6,00.0,37.6,30.6,18.5,0000.0,0003.77,0009.43,0002.21
2023-05-05 10:23:00,,0825.8,5.00,0.00,29.3,27.6,00.0,37.6,30.6,18.5,0000.0,0003.73,0008.98,0002.20
2023-05-05 10:24:00,,0825.8,5.01,0.00,29.3,27.6,00.0,37.6,30.6,18.5,0000.0,0003.74,0008.92,0002.20
2023-05-05 10:25:00,,0825.8,5.00,0.00,29.3,27.6,00.0,37.6,30.7,18.5,0000.0,0003.73,0008.85,0002.18
2023-05-05 10:26:00,,0825.9,4.99,0.00,29.3,27.6,00.0,37.7,30.7,18.8,0000.0,0003.68,0008.79,0002.15
2023-05-05 10:27:00,,0825.9,4.99,0.00,29.3,27.7,00.0,37.7,30.6,18.7,0000.0,0003.64,0008.64,0002.15
2023-05-05 10:28:00,,0825.9,5.01,0.00,29.3,27.7,00.0,37.7,30.7,18.5,0000.0,0003.62,0008.34,0002.13
2023-05-05 10:29:00,,0825.9,5.00,0.00,29.3,27.7,00.0,37.7,30.7,18.5,0000.0,0003.56,0007.78,0002.11
2023-05-05 10:30:00,,0825.9,5.00,0.00,29.3,27.7,00.0,37.7,30.7,18.4,0000.0,0003.49,0007.96,0002.10
2023-05-05 10:31:00,,0825.8,5.00,0.00,29.3,27.7,00.0,37.7,30.6,18.3,0000.0,0003.49,0008.40,0002.09
2023-05-05 10:32:00,,0825.8,5.01,0.00,29.3,27.7,00.0,37.7,30.7,18.3,0000.0,0003.46,0008.34,0002.09
2023-05-05 10:33:00,,0825.8,5.01,0.00,29.3,27.7,00.0,37.7,30.7,18.4,0000.0,0003.41,0008.24,0002.07
2023-05-05 10:34:00,,0825.8,5.00,0.00,29.3,27.7,00.0,37.7,30.8,18.7,0000.0,0003.42,0008.28,0002.07
2023-05-05 10:35:00,,0825.8,4.99,0.00,29.3,27.7,00.0,37.7,30.8,19.0,0000.0,0003.43,0008.29,0002.08
2023-05-05 10:36:00,,0825.8,4.99,0.00,29.3,27.6,00.0,37.7,30.8,19.1,0000.0,0003.44,0008.33,0002.06
2023-05-05 10:37:00,,0825.8,5.00,0.00,29.2,27.6,00.0,37.7,30.8,19.3,0000.0,0003.45,0008.28,0002.10
2023-05-05 10:38:00,,0825.8,5.00,0.00,29.2,27.6,00.0,37.7,30.8,19.7,0000.0,0003.49,0008.38,0002.12
2023-05-05 10:39:00,,0825.8,5.00,0.00,29.2,27.6,00.0,37.7,30.8,20.4,0000.0,0003.47,0008.31,0002.14
2023-05-05 10:40:00,,0825.8,5.01,0.00,29.2,27.6,00.0,37.6,30.7,20.8,0000.0,0003.53,0008.38,0002.18
2023-05-05 10:41:00,,0825.7,5.00,0.00,29.2,27.6,00.0,37.6,30.7,21.1,0000.0,0003.61,0008.28,0002.23
2023-05-05 10:42:00,,0825.7,4.98,0.00,29.2,27.5,00.0,37.6,30.7,21.3,0000.0,0003.67,0007.93,0002.28
2023-05-05 10:43:00,,0825.7,5.00,0.00,29.2,27.5,00.0,37.6,30.7,21.8,0000.0,0003.69,0008.05,0002.33
2023-05-05 10:44:00,,0825.6,5.00,0.00,29.1,27.4,00.0,37.6,30.6,21.6,0000.0,0003.73,0008.20,0002.36
2023-05-05 10:45:00,,0825.6,5.00,0.00,29.1,27.4,00.0,37.6,30.6,21.5,0000.0,0003.77,0008.28,0002.39
2023-05-05 10:46:00,,0825.6,5.00,0.00,29.1,27.3,00.0,37.6,30.6,21.6,0000.0,0003.77,0008.35,0002.41
2023-05-05 10:47:00,,0825.6,5.01,0.00,29.1,27.3,00.0,37.6,30.6,21.5,0000.0,0003.82,0008.53,0002.46
2023-05-05 10:48:00,,0825.6,5.00,0.00,29.1,27.4,00.0,37.6,30.6,21.6,0000.0,0003.89,0008.71,0002.49
2023-05-05 10:49:00,,0825.6,4.99,0.00,29.1,27.4,00.0,37.6,30.6,21.5,0000.0,0003.92,0008.86,0002.50
2023-05-05 10:50:00,,0825.7,5.00,0.00,29.1,27.5,00.0,37.5,30.6,21.3,0000.0,0004.02,0009.43,0002.53
2023-05-05 10:51:00,,0825.6,5.01,0.00,29.1,27.5,00.0,37.5,30.6,21.1,0000.0,0004.00,0009.83,0002.53
2023-05-05 10:52:00,,0825.6,4.99,0.00,29.1,27.5,00.0,37.5,30.7,20.9,0000.0,0003.99,0010.20,0002.52
2023-05-05 10:53:00,,0825.6,5.00,0.00,29.1,27.5,00.0,37.5,30.7,20.6,0000.0,0003.93,0010.50,0002.49
2023-05-05 10:54:00,,0825.6,4.99,0.00,29.1,27.5,00.0,37.5,30.7,20.4,0000.0,0003.94,0010.59,0002.46
2023-05-05 10:55:00,,0825.6,4.99,0.00,29.1,27.5,00.0,37.5,30.6,20.4,0000.0,0003.99,0010.63,0002.45
2023-05-05 10:56:00,,0825.6,5.00,0.00,29.1,27.5,00.0,37.5,30.6,20.4,0000.0,0004.04,0010.79,0002.45
2023-05-05 10:57:00,,0825.6,5.00,0.00,29.1,27.5,00.0,37.5,30.5,20.5,0000.0,0004.01,0010.63,0002.44
2023-05-05 10:58:00,,0825.6,5.01,0.00,29.1,27.5,00.0,37.5,30.6,20.6,0000.0,0003.97,0010.41,0002.44
2023-05-05 10:59:00,,0825.6,5.00,0.00,29.1,27.5,00.0,37.5,30.6,20.8,0000.0,0003.93,0010.78,0002.44
